^^
Datos históricos de la estación: Murcia-Puente Tocinos
Diario Informe para Abril 21, 2019 Unidades:  Métrico    Inglés   Ambas
Diario Semanal Mensual Anual Configurable
  Máximo: Mínimo: Media:
Temperatura: 16.3 °C 12.7 °C 13.9 °C
Punto de rocio: 12.9 °C 10.0 °C 11.3 °C
Humedad: 94% 69% 85%
Velocidad viento: 14.8km/h 0.0km/h 7.6km/h
Racha viento: 25.9km/h - -
Viento- - WSW
Presión: 1012.1 hPa 1003.5 hPa -
Precipitación: 5.8 mm    
Historical Graphs
 
 
Tabla de datos para Abril 21, 2019
Hora Temperatura Punto de rocio Presión Viento Velocidad viento Racha viento Humedad Intensidad lluvia(por hora) Nubes
00:00 14.1 °C 12.8 °C 1012.1 hPa SSE 3.2 km/h 8.0 km/h 92% 0.0 mm RA
00:05 14.0 °C 12.7 °C 1012.0 hPa South 3.9 km/h 7.4 km/h 92% 0.0 mm RA
00:10 14.0 °C 12.9 °C 1012.0 hPa South 4.7 km/h 3.7 km/h 93% 0.0 mm CLR
00:15 14.0 °C 12.7 °C 1012.0 hPa SSW 4.7 km/h 7.4 km/h 92% 0.0 mm CLR
00:20 13.9 °C 12.8 °C 1011.7 hPa South 4.7 km/h 7.4 km/h 93% 0.0 mm CLR
00:25 13.8 °C 12.7 °C 1011.7 hPa South 4.7 km/h 7.4 km/h 93% 0.0 mm CLR
00:30 13.8 °C 12.7 °C 1011.7 hPa South 5.0 km/h 5.6 km/h 93% 0.0 mm CLR
00:35 13.8 °C 12.7 °C 1011.6 hPa South 5.0 km/h 5.6 km/h 93% 0.0 mm CLR
00:40 13.8 °C 12.7 °C 1011.6 hPa SSW 4.7 km/h 7.4 km/h 93% 0.0 mm CLR
00:45 13.8 °C 12.7 °C 1011.6 hPa South 4.7 km/h 7.4 km/h 93% 0.0 mm CLR
00:50 13.8 °C 12.7 °C 1011.5 hPa South 4.7 km/h 7.4 km/h 93% 0.0 mm CLR
00:55 13.7 °C 12.6 °C 1011.5 hPa SSE 4.7 km/h 7.6 km/h 93% 0.0 mm CLR
01:00 13.7 °C 12.6 °C 1011.5 hPa SSE 4.8 km/h 8.0 km/h 93% 0.0 mm CLR
01:05 13.7 °C 12.4 °C 1011.3 hPa SSE 5.8 km/h 7.4 km/h 92% 0.0 mm CLR
01:10 13.7 °C 12.4 °C 1011.3 hPa South 5.8 km/h 7.4 km/h 92% 0.0 mm CLR
01:15 13.7 °C 12.4 °C 1011.3 hPa South 5.8 km/h 6.4 km/h 92% 0.0 mm CLR
01:20 13.7 °C 12.4 °C 1011.0 hPa South 4.7 km/h 7.4 km/h 92% 0.0 mm CLR
01:25 13.7 °C 12.4 °C 1011.0 hPa South 4.7 km/h 3.7 km/h 92% 0.0 mm CLR
01:30 13.7 °C 12.3 °C 1011.0 hPa South 2.9 km/h 3.7 km/h 91% 0.0 mm CLR
01:35 13.7 °C 12.4 °C 1010.5 hPa South 2.9 km/h 5.8 km/h 92% 0.0 mm CLR
01:40 13.7 °C 12.4 °C 1010.5 hPa WNW 3.2 km/h 7.4 km/h 92% 0.0 mm CLR
01:45 13.7 °C 12.4 °C 1010.5 hPa WNW 3.2 km/h 7.6 km/h 92% 0.0 mm CLR
01:50 13.6 °C 12.3 °C 1010.0 hPa WNW 5.0 km/h 7.6 km/h 92% 0.0 mm CLR
01:55 13.6 °C 12.5 °C 1010.0 hPa West 5.0 km/h 5.6 km/h 93% 0.0 mm CLR
02:00 13.5 °C 12.4 °C 1010.0 hPa West 4.8 km/h 8.0 km/h 93% 0.0 mm CLR
02:05 13.5 °C 12.6 °C 1010.1 hPa South 5.0 km/h 7.4 km/h 94% 0.0 mm CLR
02:10 13.5 °C 12.6 °C 1010.1 hPa South 5.0 km/h 7.4 km/h 94% 0.0 mm CLR
02:15 13.4 °C 12.4 °C 1010.1 hPa South 5.0 km/h 7.4 km/h 94% 0.0 mm CLR
02:20 13.4 °C 12.4 °C 1010.2 hPa SSE 5.0 km/h 9.3 km/h 94% 0.0 mm CLR
02:25 13.3 °C 12.3 °C 1010.2 hPa SSW 5.0 km/h 11.1 km/h 94% 0.0 mm CLR
02:30 13.3 °C 12.3 °C 1010.2 hPa SSE 6.9 km/h 11.1 km/h 94% 0.0 mm CLR
02:35 13.3 °C 12.3 °C 1010.2 hPa SSE 6.9 km/h 11.1 km/h 94% 0.0 mm CLR
02:40 13.3 °C 12.3 °C 1010.2 hPa SSE 8.4 km/h 11.1 km/h 94% 0.0 mm CLR
02:45 13.3 °C 12.3 °C 1010.2 hPa SSE 8.4 km/h 14.8 km/h 94% 0.0 mm CLR
02:50 13.3 °C 12.3 °C 1010.3 hPa South 9.5 km/h 13.0 km/h 94% 0.0 mm CLR
02:55 13.3 °C 12.3 °C 1010.3 hPa South 9.5 km/h 9.3 km/h 94% 0.0 mm CLR
03:00 13.3 °C 12.3 °C 1010.3 hPa South 8.0 km/h 11.3 km/h 94% 0.0 mm CLR
03:05 13.4 °C 12.4 °C 1010.0 hPa SSE 8.4 km/h 9.3 km/h 94% 0.0 mm CLR
03:10 13.4 °C 12.4 °C 1010.0 hPa South 5.8 km/h 11.9 km/h 94% 0.0 mm CLR
03:15 13.4 °C 12.3 °C 1010.0 hPa South 5.8 km/h 11.1 km/h 93% 0.0 mm CLR
03:20 13.4 °C 12.3 °C 1009.9 hPa South 7.6 km/h 9.3 km/h 93% 0.0 mm CLR
03:25 13.4 °C 12.3 °C 1009.9 hPa South 7.6 km/h 9.3 km/h 93% 0.0 mm CLR
03:30 13.4 °C 12.3 °C 1009.9 hPa SSW 6.4 km/h 5.8 km/h 93% 0.0 mm CLR
03:35 13.4 °C 12.3 °C 1009.7 hPa SSW 6.4 km/h 5.0 km/h 93% 0.0 mm CLR
03:40 13.4 °C 12.1 °C 1009.7 hPa SSW 3.2 km/h 3.7 km/h 92% 0.0 mm CLR
03:45 13.4 °C 11.9 °C 1009.7 hPa SSW 3.2 km/h 3.7 km/h 91% 0.0 mm CLR
03:50 13.3 °C 11.7 °C 1009.5 hPa NW 3.2 km/h 8.4 km/h 90% 0.0 mm CLR
03:55 13.3 °C 11.5 °C 1009.5 hPa NW 3.2 km/h 11.1 km/h 89% 0.0 mm CLR
04:00 13.3 °C 11.5 °C 1009.5 hPa NW 8.0 km/h 11.3 km/h 89% 0.0 mm CLR
04:05 13.2 °C 11.3 °C 1009.5 hPa NNW 6.4 km/h 3.7 km/h 88% 0.0 mm CLR
04:10 13.2 °C 11.3 °C 1009.5 hPa NNW 3.9 km/h 5.6 km/h 88% 0.0 mm CLR
04:15 13.2 °C 11.1 °C 1009.5 hPa NNW 3.9 km/h 5.8 km/h 87% 0.0 mm CLR
04:20 13.2 °C 11.1 °C 1009.4 hPa NNW 3.2 km/h 7.4 km/h 87% 0.0 mm CLR
04:25 13.2 °C 11.1 °C 1009.4 hPa NW 3.2 km/h 5.6 km/h 87% 0.0 mm CLR
04:30 13.2 °C 10.9 °C 1009.4 hPa NW 3.2 km/h 3.7 km/h 86% 0.0 mm CLR
04:35 13.2 °C 10.9 °C 1009.4 hPa NW 3.2 km/h 3.7 km/h 86% 0.0 mm CLR
04:40 13.2 °C 10.9 °C 1009.4 hPa WSW 2.3 km/h 7.6 km/h 86% 0.0 mm CLR
04:45 13.2 °C 10.9 °C 1009.4 hPa WNW 2.3 km/h 7.4 km/h 86% 0.0 mm CLR
04:50 13.2 °C 10.9 °C 1009.2 hPa WNW 5.0 km/h 6.4 km/h 86% 0.0 mm CLR
04:55 13.2 °C 10.9 °C 1009.2 hPa NW 5.0 km/h 7.4 km/h 86% 0.0 mm CLR
05:00 13.2 °C 10.7 °C 1009.2 hPa NW 4.8 km/h 11.3 km/h 85% 0.0 mm CLR
05:05 13.2 °C 10.7 °C 1009.0 hPa NW 5.0 km/h 11.1 km/h 85% 0.0 mm CLR
05:10 13.2 °C 10.6 °C 1009.0 hPa WNW 7.6 km/h 11.1 km/h 84% 0.0 mm CLR
05:15 13.2 °C 10.6 °C 1009.0 hPa NNW 7.6 km/h 9.3 km/h 84% 0.0 mm CLR
05:20 13.2 °C 10.6 °C 1008.7 hPa NW 7.6 km/h 11.1 km/h 84% 0.0 mm CLR
05:25 13.2 °C 10.6 °C 1008.7 hPa NW 7.6 km/h 13.0 km/h 84% 0.0 mm CLR
05:30 13.2 °C 10.6 °C 1008.7 hPa NNW 8.4 km/h 11.1 km/h 84% 0.0 mm CLR
05:35 13.2 °C 10.4 °C 1008.7 hPa NW 8.4 km/h 9.3 km/h 83% 0.0 mm CLR
05:40 13.2 °C 10.4 °C 1008.7 hPa NW 8.4 km/h 11.1 km/h 83% 0.0 mm CLR
05:45 13.2 °C 10.4 °C 1008.7 hPa NW 8.4 km/h 8.4 km/h 83% 0.0 mm CLR
05:50 13.2 °C 10.2 °C 1008.4 hPa NW 6.4 km/h 10.0 km/h 82% 0.0 mm CLR
05:55 13.2 °C 10.2 °C 1008.4 hPa NW 6.4 km/h 9.3 km/h 82% 0.0 mm CLR
06:00 13.2 °C 10.2 °C 1008.4 hPa NW 8.0 km/h 9.7 km/h 82% 0.0 mm CLR
06:05 13.2 °C 10.2 °C 1008.3 hPa NW 6.4 km/h 7.4 km/h 82% 0.0 mm CLR
06:10 13.2 °C 10.4 °C 1008.3 hPa NW 5.0 km/h 5.6 km/h 83% 0.0 mm CLR
06:15 13.2 °C 10.4 °C 1008.3 hPa NW 5.0 km/h 5.6 km/h 83% 0.0 mm CLR
06:20 13.2 °C 10.4 °C 1008.3 hPa WNW 3.9 km/h 7.4 km/h 83% 0.0 mm CLR
06:25 13.2 °C 10.4 °C 1008.3 hPa WNW 3.9 km/h 7.4 km/h 83% 0.0 mm CLR
06:30 13.2 °C 10.2 °C 1008.3 hPa WNW 3.9 km/h 5.6 km/h 82% 0.0 mm CLR
06:35 13.2 °C 10.2 °C 1008.0 hPa NNW 3.9 km/h 7.4 km/h 82% 0.0 mm CLR
06:40 13.2 °C 10.4 °C 1008.0 hPa NNW 3.9 km/h 7.4 km/h 83% 0.0 mm CLR
06:45 13.1 °C 10.3 °C 1008.0 hPa NNW 3.9 km/h 7.4 km/h 83% 0.0 mm CLR
06:50 13.1 °C 10.3 °C 1007.7 hPa NNW 4.7 km/h 7.6 km/h 83% 0.0 mm CLR
06:55 13.1 °C 10.1 °C 1007.7 hPa NW 4.7 km/h 9.3 km/h 82% 0.0 mm CLR
07:00 13.1 °C 10.1 °C 1007.7 hPa NNW 4.8 km/h 8.0 km/h 82% 0.0 mm CLR
07:05 13.2 °C 10.2 °C 1007.6 hPa NW 5.0 km/h 3.7 km/h 82% 0.0 mm CLR
07:10 13.2 °C 10.2 °C 1007.6 hPa Calm     82% 0.0 mm CLR
07:15 13.2 °C 10.4 °C 1007.6 hPa Calm     83% 0.0 mm CLR
07:20 13.2 °C 10.6 °C 1007.5 hPa Calm     84% 0.0 mm CLR
07:25 13.2 °C 10.6 °C 1007.5 hPa Calm     84% 0.0 mm CLR
07:30 13.2 °C 10.6 °C 1007.5 hPa Calm     84% 0.0 mm CLR
07:35 13.1 °C 10.4 °C 1007.6 hPa Calm     84% 0.0 mm CLR
07:40 13.1 °C 10.4 °C 1007.6 hPa Calm   3.9 km/h 84% 0.0 mm CLR
07:45 13.0 °C 10.3 °C 1007.6 hPa Calm   5.6 km/h 84% 0.0 mm CLR
07:50 13.1 °C 10.4 °C 1007.8 hPa SSW 3.9 km/h 7.4 km/h 84% 0.0 mm CLR
07:55 13.0 °C 10.3 °C 1007.8 hPa SSW 3.9 km/h 9.3 km/h 84% 0.0 mm CLR
08:00 13.0 °C 10.3 °C 1007.8 hPa SSW 4.8 km/h 9.7 km/h 84% 0.0 mm CLR
08:05 13.1 °C 10.6 °C 1007.9 hPa SSW 5.8 km/h 10.3 km/h 85% 0.0 mm CLR
08:10 13.1 °C 10.8 °C 1007.9 hPa SW 6.4 km/h 9.3 km/h 86% 0.0 mm CLR
08:15 13.1 °C 10.8 °C 1007.9 hPa SSW 6.4 km/h 9.3 km/h 86% 0.0 mm CLR
08:20 13.1 °C 11.0 °C 1007.8 hPa SSW 6.9 km/h 7.6 km/h 87% 0.0 mm CLR
08:25 13.1 °C 11.0 °C 1007.8 hPa SSW 6.9 km/h 7.4 km/h 87% 0.0 mm CLR
08:30 13.1 °C 11.0 °C 1007.8 hPa SSW 5.0 km/h 5.6 km/h 87% 0.0 mm CLR
08:35 13.1 °C 11.0 °C 1007.8 hPa SSW 5.0 km/h 7.4 km/h 87% 0.0 mm CLR
08:40 13.1 °C 11.0 °C 1007.8 hPa South 4.7 km/h 7.4 km/h 87% 0.0 mm CLR
08:45 13.1 °C 11.0 °C 1007.8 hPa SSE 4.7 km/h 11.9 km/h 87% 0.0 mm CLR
08:50 13.0 °C 10.9 °C 1007.9 hPa SSE 6.9 km/h 9.3 km/h 87% 0.0 mm CLR
08:55 12.9 °C 10.9 °C 1007.9 hPa SSE 6.9 km/h 7.6 km/h 88% 0.0 mm CLR
09:00 12.9 °C 10.9 °C 1007.9 hPa South 8.0 km/h 8.0 km/h 88% 0.0 mm CLR
09:05 13.0 °C 11.2 °C 1007.8 hPa SSW 6.4 km/h 7.4 km/h 89% 0.0 mm CLR
09:10 13.0 °C 11.2 °C 1007.8 hPa SSW 4.7 km/h 7.4 km/h 89% 0.0 mm CLR
09:15 13.1 °C 11.3 °C 1007.8 hPa SSW 4.7 km/h 3.7 km/h 89% 0.0 mm CLR
09:20 13.1 °C 11.2 °C 1007.7 hPa WSW 3.9 km/h 7.4 km/h 88% 0.0 mm CLR
09:25 13.2 °C 11.3 °C 1007.7 hPa WSW 3.9 km/h 5.6 km/h 88% 0.0 mm CLR
09:30 13.3 °C 11.2 °C 1007.7 hPa WSW 2.9 km/h 3.9 km/h 87% 0.0 mm CLR
09:35 13.3 °C 11.2 °C 1007.6 hPa NW 2.9 km/h 7.4 km/h 87% 0.0 mm CLR
09:40 13.5 °C 11.4 °C 1007.6 hPa WNW 3.2 km/h 8.4 km/h 87% 0.0 mm CLR
09:45 13.6 °C 11.3 °C 1007.6 hPa NW 3.2 km/h 6.9 km/h 86% 0.0 mm CLR
09:50 13.7 °C 11.4 °C 1007.4 hPa NW 4.7 km/h 7.4 km/h 86% 0.0 mm CLR
09:55 13.7 °C 11.2 °C 1007.4 hPa WNW 4.7 km/h 7.4 km/h 85% 0.0 mm CLR
10:00 13.8 °C 11.3 °C 1007.4 hPa WNW 3.2 km/h 8.0 km/h 85% 0.0 mm CLR
10:05 13.9 °C 11.2 °C 1007.4 hPa West 4.7 km/h 7.4 km/h 84% 0.0 mm CLR
10:10 13.9 °C 11.1 °C 1007.4 hPa WNW 4.7 km/h 3.7 km/h 83% 0.0 mm CLR
10:15 14.0 °C 11.3 °C 1007.4 hPa WNW 4.7 km/h 5.6 km/h 84% 0.0 mm CLR
10:20 14.1 °C 11.4 °C 1007.2 hPa WNW 2.3 km/h 5.8 km/h 84% 0.3 mm RA
10:25 14.2 °C 11.3 °C 1007.2 hPa WSW 2.3 km/h 7.4 km/h 83% 0.3 mm RA
10:30 14.2 °C 11.2 °C 1007.2 hPa WNW 4.7 km/h 7.4 km/h 82% 0.3 mm
10:35 14.3 °C 11.3 °C 1007.1 hPa WNW 4.7 km/h 7.6 km/h 82% 0.3 mm CLR
10:40 14.4 °C 11.4 °C 1007.1 hPa WNW 5.8 km/h 7.4 km/h 82% 0.3 mm CLR
10:45 14.5 °C 11.3 °C 1007.1 hPa West 5.8 km/h 13.0 km/h 81% 0.3 mm CLR
10:50 14.6 °C 11.2 °C 1007.0 hPa NW 7.6 km/h 14.8 km/h 80% 0.3 mm CLR
10:55 14.7 °C 11.1 °C 1007.0 hPa West 7.6 km/h 13.0 km/h 79% 0.3 mm CLR
11:00 14.7 °C 10.9 °C 1007.0 hPa WNW 8.0 km/h 14.5 km/h 78% 0.0 mm CLR
11:05 14.8 °C 11.0 °C 1006.9 hPa WNW 8.4 km/h 9.3 km/h 78% 0.3 mm CLR
11:10 15.0 °C 11.4 °C 1006.9 hPa NW 7.6 km/h 7.4 km/h 79% 0.3 mm CLR
11:15 15.2 °C 11.4 °C 1006.9 hPa West 7.6 km/h 9.3 km/h 78% 0.3 mm CLR
11:20 15.3 °C 11.3 °C 1006.7 hPa WNW 6.4 km/h 9.3 km/h 77% 0.0 mm CLR
11:25 15.6 °C 11.4 °C 1006.7 hPa NNW 6.4 km/h 13.0 km/h 76% 0.0 mm CLR
11:30 15.7 °C 11.1 °C 1006.7 hPa North 8.4 km/h 13.0 km/h 74% 0.0 mm CLR
11:35 15.8 °C 10.6 °C 1006.6 hPa NNE 8.4 km/h 18.5 km/h 71% 0.0 mm CLR
11:40 15.9 °C 11.1 °C 1006.6 hPa North 9.5 km/h 11.1 km/h 73% 0.0 mm CLR
11:45 16.1 °C 10.8 °C 1006.6 hPa WNW 9.5 km/h 16.7 km/h 71% 0.0 mm CLR
11:50 16.0 °C 10.6 °C 1006.5 hPa WNW 9.5 km/h 17.2 km/h 70% 0.0 mm CLR
11:55 16.0 °C 10.6 °C 1006.5 hPa NW 9.5 km/h 11.1 km/h 70% 0.0 mm CLR
12:00 16.0 °C 10.6 °C 1006.5 hPa NW 9.7 km/h 16.1 km/h 70% 0.0 mm CLR
12:05 16.1 °C 10.8 °C 1006.5 hPa NW 10.0 km/h 13.0 km/h 71% 0.0 mm CLR
12:10 16.1 °C 10.6 °C 1006.5 hPa WNW 8.7 km/h 16.7 km/h 70% 0.0 mm CLR
12:15 16.1 °C 10.4 °C 1006.5 hPa WNW 8.7 km/h 16.7 km/h 69% 0.0 mm CLR
12:20 16.1 °C 10.6 °C 1006.4 hPa NW 10.0 km/h 11.1 km/h 70% 0.0 mm CLR
12:25 16.1 °C 10.6 °C 1006.4 hPa NW 10.0 km/h 14.8 km/h 70% 0.0 mm CLR
12:30 16.1 °C 10.6 °C 1006.4 hPa WNW 8.7 km/h 12.2 km/h 70% 0.0 mm CLR
12:35 16.1 °C 10.6 °C 1006.3 hPa WNW 8.7 km/h 18.5 km/h 70% 0.0 mm CLR
12:40 16.1 °C 10.6 °C 1006.3 hPa NNW 8.7 km/h 13.0 km/h 70% 0.0 mm CLR
12:45 16.1 °C 10.8 °C 1006.3 hPa NW 8.7 km/h 9.3 km/h 71% 0.0 mm CLR
12:50 16.1 °C 10.6 °C 1006.2 hPa WNW 7.6 km/h 13.0 km/h 70% 0.0 mm CLR
12:55 16.1 °C 10.6 °C 1006.2 hPa NW 7.6 km/h 16.7 km/h 70% 0.0 mm CLR
13:00 16.0 °C 10.3 °C 1006.2 hPa WNW 9.7 km/h 14.5 km/h 69% 0.0 mm CLR
13:05 16.0 °C 10.6 °C 1005.9 hPa WNW 10.0 km/h 11.1 km/h 70% 0.0 mm CLR
13:10 16.0 °C 10.6 °C 1005.9 hPa WNW 8.7 km/h 13.0 km/h 70% 0.0 mm CLR
13:15 16.0 °C 10.7 °C 1005.9 hPa WNW 8.7 km/h 12.2 km/h 71% 0.0 mm CLR
13:20 16.1 °C 10.6 °C 1005.5 hPa WNW 9.5 km/h 14.8 km/h 70% 0.0 mm CLR
13:25 16.1 °C 10.6 °C 1005.5 hPa WNW 9.5 km/h 13.0 km/h 70% 0.0 mm CLR
13:30 16.2 °C 10.7 °C 1005.5 hPa WNW 8.7 km/h 14.8 km/h 70% 0.0 mm CLR
13:35 16.2 °C 10.5 °C 1005.3 hPa NW 8.7 km/h 13.0 km/h 69% 0.0 mm CLR
13:40 16.2 °C 10.5 °C 1005.3 hPa West 9.5 km/h 11.1 km/h 69% 0.0 mm CLR
13:45 16.2 °C 10.5 °C 1005.3 hPa WNW 9.5 km/h 12.2 km/h 69% 0.0 mm CLR
13:50 16.3 °C 10.6 °C 1005.2 hPa West 8.7 km/h 14.8 km/h 69% 0.0 mm CLR
13:55 16.3 °C 10.8 °C 1005.2 hPa West 8.7 km/h 9.3 km/h 70% 0.0 mm CLR
14:00 16.3 °C 10.8 °C 1005.2 hPa WNW 8.0 km/h 17.7 km/h 70% 0.0 mm CLR
14:05 16.3 °C 11.2 °C 1005.0 hPa NW 8.4 km/h 14.8 km/h 72% 0.0 mm CLR
14:10 16.2 °C 11.2 °C 1005.0 hPa WNW 10.3 km/h 14.8 km/h 72% 0.0 mm CLR
14:15 16.1 °C 11.4 °C 1005.0 hPa WNW 10.3 km/h 20.9 km/h 74% 0.3 mm RA
14:20 15.8 °C 11.4 °C 1005.1 hPa WNW 9.5 km/h 16.7 km/h 75% 0.3 mm RA
14:25 15.7 °C 11.7 °C 1005.1 hPa NW 9.5 km/h 14.8 km/h 77% 0.3 mm
14:30 15.4 °C 11.6 °C 1005.1 hPa NW 10.3 km/h 16.7 km/h 78% 0.5 mm RA
14:35 15.3 °C 11.9 °C 1005.0 hPa NW 10.3 km/h 14.8 km/h 80% 0.5 mm RA
14:40 15.1 °C 12.1 °C 1005.0 hPa NNW 11.1 km/h 14.8 km/h 82% 0.5 mm RA
14:45 15.1 °C 12.1 °C 1005.0 hPa NNW 11.1 km/h 14.8 km/h 82% 0.5 mm
14:50 15.0 °C 12.1 °C 1005.0 hPa NW 10.0 km/h 11.9 km/h 83% 0.5 mm CLR
14:55 14.9 °C 12.1 °C 1005.0 hPa NW 10.0 km/h 13.0 km/h 83% 0.5 mm CLR
15:00 14.9 °C 12.1 °C 1005.0 hPa NW 9.7 km/h 14.5 km/h 83% 0.0 mm
15:05 14.9 °C 12.1 °C 1004.9 hPa WNW 8.7 km/h 11.1 km/h 83% 0.5 mm CLR
15:10 14.9 °C 12.1 °C 1004.9 hPa WNW 8.4 km/h 14.8 km/h 83% 0.5 mm CLR
15:15 14.9 °C 12.1 °C 1004.9 hPa West 8.4 km/h 13.0 km/h 83% 0.5 mm CLR
15:20 14.8 °C 11.9 °C 1004.6 hPa WNW 9.5 km/h 14.8 km/h 83% 0.3 mm CLR
15:25 14.8 °C 11.9 °C 1004.6 hPa WNW 9.5 km/h 11.9 km/h 83% 0.3 mm CLR
15:30 14.8 °C 11.9 °C 1004.6 hPa West 8.4 km/h 13.0 km/h 83% 0.3 mm CLR
15:35 14.8 °C 12.1 °C 1004.6 hPa West 8.4 km/h 11.1 km/h 84% 0.3 mm CLR
15:40 14.7 °C 12.0 °C 1004.6 hPa SW 7.6 km/h 10.0 km/h 84% 0.5 mm RA
15:45 14.6 °C 11.9 °C 1004.6 hPa WSW 7.6 km/h 20.4 km/h 84% 0.5 mm RA
15:50 14.5 °C 11.8 °C 1004.7 hPa WSW 9.5 km/h 14.8 km/h 84% 0.5 mm
15:55 14.3 °C 11.8 °C 1004.7 hPa SW 9.5 km/h 11.1 km/h 85% 0.8 mm RA
16:00 14.3 °C 11.9 °C 1004.7 hPa SW 9.7 km/h 12.9 km/h 86% 0.0 mm RA
16:05 14.1 °C 11.9 °C 1004.8 hPa SSW 8.7 km/h 15.6 km/h 87% 1.5 mm RA
16:10 13.9 °C 11.9 °C 1004.8 hPa SW 10.3 km/h 13.0 km/h 88% 1.5 mm RA
16:15 13.8 °C 12.0 °C 1004.8 hPa South 10.3 km/h 13.0 km/h 89% 1.5 mm RA
16:20 13.7 °C 12.1 °C 1004.9 hPa South 9.5 km/h 16.7 km/h 90% 2.0 mm RA
16:25 13.6 °C 12.0 °C 1004.9 hPa SSW 9.5 km/h 16.7 km/h 90% 2.0 mm RA
16:30 13.6 °C 12.2 °C 1004.9 hPa SW 11.1 km/h 13.0 km/h 91% 2.0 mm
16:35 13.5 °C 12.1 °C 1004.7 hPa SW 11.1 km/h 11.1 km/h 91% 2.0 mm
16:40 13.6 °C 12.3 °C 1004.7 hPa SW 9.5 km/h 9.5 km/h 92% 2.0 mm RA
16:45 13.6 °C 12.3 °C 1004.7 hPa SW 9.5 km/h 11.1 km/h 92% 1.8 mm RA
16:50 13.6 °C 12.3 °C 1004.6 hPa SW 8.4 km/h 9.3 km/h 92% 2.0 mm RA
16:55 13.6 °C 12.3 °C 1004.6 hPa SW 8.4 km/h 11.1 km/h 92% 2.0 mm RA
17:00 13.6 °C 12.3 °C 1004.6 hPa WSW 8.0 km/h 11.3 km/h 92% 0.3 mm RA
17:05 13.7 °C 12.4 °C 1004.3 hPa West 6.9 km/h 11.1 km/h 92% 1.8 mm RA
17:10 13.7 °C 12.4 °C 1004.3 hPa WNW 7.6 km/h 11.1 km/h 92% 1.3 mm
17:15 13.7 °C 12.4 °C 1004.3 hPa WNW 7.6 km/h 11.1 km/h 92% 1.3 mm
17:20 13.8 °C 12.5 °C 1004.3 hPa WSW 7.6 km/h 10.0 km/h 92% 1.3 mm CLR
17:25 13.8 °C 12.5 °C 1004.3 hPa West 7.6 km/h 11.1 km/h 92% 1.0 mm CLR
17:30 13.8 °C 12.3 °C 1004.3 hPa West 6.4 km/h 13.0 km/h 91% 1.0 mm CLR
17:35 13.7 °C 12.3 °C 1004.3 hPa WSW 6.4 km/h 18.5 km/h 91% 1.3 mm RA
17:40 13.7 °C 12.1 °C 1004.3 hPa West 9.5 km/h 20.4 km/h 90% 1.0 mm RA
17:45 13.7 °C 12.1 °C 1004.3 hPa West 9.5 km/h 14.8 km/h 90% 1.0 mm
17:50 13.7 °C 12.1 °C 1004.2 hPa West 10.3 km/h 14.8 km/h 90% 0.8 mm CLR
17:55 13.7 °C 12.1 °C 1004.2 hPa WNW 10.3 km/h 11.1 km/h 90% 0.5 mm CLR
18:00 13.7 °C 12.1 °C 1004.2 hPa West 9.7 km/h 14.5 km/h 90% 0.0 mm
18:05 13.7 °C 11.9 °C 1004.2 hPa West 9.5 km/h 18.5 km/h 89% 0.3 mm CLR
18:10 13.7 °C 11.9 °C 1004.2 hPa SW 10.3 km/h 17.2 km/h 89% 0.3 mm CLR
18:15 13.7 °C 11.7 °C 1004.2 hPa WSW 10.3 km/h 16.7 km/h 88% 0.3 mm CLR
18:20 13.7 °C 11.7 °C 1004.2 hPa SW 11.1 km/h 13.0 km/h 88% 0.3 mm CLR
18:25 13.7 °C 11.9 °C 1004.2 hPa WSW 11.1 km/h 9.5 km/h 89% 0.3 mm CLR
18:30 13.7 °C 11.7 °C 1004.2 hPa SW 8.4 km/h 14.8 km/h 88% 0.3 mm CLR
18:35 13.7 °C 11.9 °C 1004.2 hPa West 8.4 km/h 13.0 km/h 89% 0.3 mm CLR
18:40 13.7 °C 11.7 °C 1004.2 hPa West 8.7 km/h 16.7 km/h 88% 0.0 mm CLR
18:45 13.7 °C 11.7 °C 1004.2 hPa SW 8.7 km/h 16.7 km/h 88% 0.0 mm CLR
18:50 13.7 °C 11.7 °C 1004.3 hPa WSW 10.0 km/h 13.0 km/h 88% 0.0 mm CLR
18:55 13.8 °C 11.8 °C 1004.3 hPa SW 10.0 km/h 18.5 km/h 88% 0.3 mm RA
19:00 13.8 °C 11.8 °C 1004.3 hPa SW 9.7 km/h 19.3 km/h 88% 0.0 mm RA
19:05 13.7 °C 11.7 °C 1004.2 hPa WSW 10.0 km/h 14.8 km/h 88% 0.3 mm
19:10 13.7 °C 11.9 °C 1004.2 hPa SSW 11.1 km/h 14.8 km/h 89% 0.5 mm RA
19:15 13.7 °C 11.9 °C 1004.2 hPa SW 11.1 km/h 18.5 km/h 89% 0.5 mm RA
19:20 13.6 °C 11.8 °C 1004.0 hPa West 10.3 km/h 16.7 km/h 89% 0.5 mm
19:25 13.6 °C 11.8 °C 1004.0 hPa WSW 10.3 km/h 13.7 km/h 89% 0.5 mm
19:30 13.6 °C 11.8 °C 1004.0 hPa WSW 9.5 km/h 14.8 km/h 89% 0.5 mm CLR
19:35 13.6 °C 11.7 °C 1004.2 hPa WSW 9.5 km/h 14.8 km/h 88% 0.5 mm CLR
19:40 13.6 °C 11.7 °C 1004.2 hPa WSW 10.0 km/h 17.2 km/h 88% 0.5 mm CLR
19:45 13.6 °C 11.7 °C 1004.2 hPa WNW 10.0 km/h 14.8 km/h 88% 0.8 mm RA
19:50 13.6 °C 11.7 °C 1004.1 hPa WSW 8.7 km/h 14.8 km/h 88% 0.8 mm RA
19:55 13.5 °C 11.7 °C 1004.1 hPa West 8.7 km/h 18.5 km/h 89% 0.8 mm
20:00 13.4 °C 11.6 °C 1004.1 hPa West 11.3 km/h 19.3 km/h 89% 0.0 mm
20:05 13.4 °C 11.8 °C 1003.8 hPa West 11.1 km/h 14.0 km/h 90% 0.5 mm CLR
20:10 13.3 °C 11.7 °C 1003.8 hPa West 10.3 km/h 13.0 km/h 90% 0.5 mm CLR
20:15 13.3 °C 11.7 °C 1003.8 hPa West 10.3 km/h 14.8 km/h 90% 0.5 mm CLR
20:20 13.3 °C 11.7 °C 1003.9 hPa WSW 8.7 km/h 13.0 km/h 90% 0.3 mm CLR
20:25 13.3 °C 11.5 °C 1003.9 hPa SW 8.7 km/h 18.5 km/h 89% 0.3 mm CLR
20:30 13.4 °C 11.4 °C 1003.9 hPa SW 11.1 km/h 18.5 km/h 88% 0.3 mm CLR
20:35 13.5 °C 11.4 °C 1003.7 hPa WSW 11.1 km/h 16.7 km/h 87% 0.3 mm CLR
20:40 13.6 °C 11.3 °C 1003.7 hPa SW 11.9 km/h 18.5 km/h 86% 0.3 mm CLR
20:45 13.6 °C 11.3 °C 1003.7 hPa SW 11.9 km/h 13.0 km/h 86% 0.3 mm CLR
20:50 13.6 °C 11.3 °C 1003.6 hPa SW 10.3 km/h 13.0 km/h 86% 0.0 mm CLR
20:55 13.5 °C 11.0 °C 1003.6 hPa West 10.3 km/h 16.7 km/h 85% 0.0 mm CLR
21:00 13.5 °C 11.0 °C 1003.6 hPa WSW 9.7 km/h 20.9 km/h 85% 0.0 mm CLR
21:05 13.4 °C 10.8 °C 1003.8 hPa WSW 9.5 km/h 16.7 km/h 84% 0.0 mm CLR
21:10 13.4 °C 10.8 °C 1003.8 hPa SW 11.1 km/h 11.1 km/h 84% 0.0 mm CLR
21:15 13.4 °C 10.8 °C 1003.8 hPa WSW 11.1 km/h 18.5 km/h 84% 0.0 mm CLR
21:20 13.4 °C 10.6 °C 1003.9 hPa West 10.3 km/h 17.2 km/h 83% 0.0 mm CLR
21:25 13.4 °C 10.6 °C 1003.9 hPa West 10.3 km/h 16.7 km/h 83% 0.0 mm CLR
21:30 13.4 °C 10.6 °C 1003.9 hPa West 10.3 km/h 15.6 km/h 83% 0.0 mm CLR
21:35 13.4 °C 10.4 °C 1003.6 hPa WSW 10.3 km/h 22.2 km/h 82% 0.0 mm CLR
21:40 13.4 °C 10.4 °C 1003.6 hPa SSW 11.9 km/h 16.7 km/h 82% 0.0 mm CLR
21:45 13.5 °C 10.5 °C 1003.6 hPa WSW 11.9 km/h 18.0 km/h 82% 0.0 mm CLR
21:50 13.5 °C 10.5 °C 1003.6 hPa WSW 11.9 km/h 20.4 km/h 82% 0.0 mm CLR
21:55 13.5 °C 10.5 °C 1003.6 hPa SW 11.9 km/h 14.8 km/h 82% 0.0 mm CLR
22:00 13.4 °C 10.4 °C 1003.6 hPa WSW 11.3 km/h 19.3 km/h 82% 0.0 mm CLR
22:05 13.5 °C 10.5 °C 1003.5 hPa SSW 11.1 km/h 16.4 km/h 82% 0.0 mm CLR
22:10 13.4 °C 10.4 °C 1003.5 hPa WSW 10.3 km/h 20.4 km/h 82% 0.0 mm CLR
22:15 13.5 °C 10.5 °C 1003.5 hPa SW 10.3 km/h 22.2 km/h 82% 0.0 mm CLR
22:20 13.5 °C 10.5 °C 1003.5 hPa SW 14.0 km/h 20.4 km/h 82% 0.0 mm CLR
22:25 13.5 °C 10.3 °C 1003.5 hPa SW 14.0 km/h 20.4 km/h 81% 0.0 mm CLR
22:30 13.6 °C 10.4 °C 1003.5 hPa SW 14.8 km/h 25.9 km/h 81% 0.0 mm CLR
22:35 13.6 °C 10.4 °C 1003.6 hPa WSW 14.8 km/h 20.4 km/h 81% 0.0 mm CLR
22:40 13.6 °C 10.2 °C 1003.6 hPa WSW 13.7 km/h 24.1 km/h 80% 0.0 mm CLR
22:45 13.6 °C 10.0 °C 1003.6 hPa WSW 13.7 km/h 22.2 km/h 79% 0.0 mm CLR
22:50 13.7 °C 10.1 °C 1004.1 hPa SW 14.0 km/h 20.4 km/h 79% 0.0 mm CLR
22:55 13.7 °C 10.1 °C 1004.1 hPa WSW 14.0 km/h 16.7 km/h 79% 0.0 mm CLR
23:00 13.7 °C 10.1 °C 1004.1 hPa WSW 12.9 km/h 20.9 km/h 79% 0.0 mm CLR
23:05 13.6 °C 10.0 °C 1003.9 hPa SW 13.0 km/h 22.2 km/h 79% 0.0 mm CLR
23:10 13.5 °C 10.1 °C 1003.9 hPa WSW 14.8 km/h 20.4 km/h 80% 0.5 mm RA
23:15 13.5 °C 10.1 °C 1003.9 hPa WSW 14.8 km/h 16.4 km/h 80% 0.5 mm RA
23:20 13.4 °C 10.2 °C 1003.9 hPa WSW 13.0 km/h 14.8 km/h 81% 0.5 mm
23:25 13.3 °C 10.3 °C 1003.9 hPa WSW 13.0 km/h 16.4 km/h 82% 0.5 mm CLR
23:30 13.3 °C 10.3 °C 1003.9 hPa WSW 10.3 km/h 13.0 km/h 82% 0.8 mm RA
23:35 13.2 °C 10.6 °C 1003.8 hPa SW 10.3 km/h 13.0 km/h 84% 0.8 mm RA
23:40 13.0 °C 10.6 °C 1003.8 hPa SSW 10.0 km/h 16.7 km/h 85% 0.8 mm RA
23:45 12.8 °C 10.5 °C 1003.8 hPa South 10.0 km/h 20.4 km/h 86% 0.8 mm
23:50 12.8 °C 10.5 °C 1003.7 hPa SSW 11.9 km/h 18.5 km/h 86% 1.0 mm RA
23:55 12.7 °C 10.6 °C 1003.7 hPa SW 11.9 km/h 20.4 km/h 87% 1.0 mm RA
Murcia-Puente Tocinos, España
Compliments of Weather Underground - 2.75 mb

La estación de MeteoMurcia.com, publica sus datos en los siguientes proyectos:

Weather Underground PWS IMURCIAP2 Meteoclimatic www.awekas.at

W3Counter
Web Analytics